Regional Weather Roundup
Issued by NWS

Home | Current Version | Previous Version | Text Only | Print | Product List | Glossary On
Versions: 1 2 3 4 5 6 7 8 9 10 11 12 13 14 15 16 17 18 19 20 21 22 23 24 25 26 27 28 29 30 31 32 33 34 35 36 37 38 39 40 41 42 43 44 45 46 47 48 49 50
000
ASUS43 KMKX 270111
RWRWI

WISCONSIN REGIONAL WEATHER ROUNDUP
NATIONAL WEATHER SERVICE MILWAUKEE/SULLIVAN WI
800 PM CDT FRI AUG 26 2016

NOTE: "FAIR" INDICATES FEW OR NO CLOUDS BELOW 12,000 FEET WITH NO
SIGNIFICANT WEATHER AND/OR OBSTRUCTIONS TO VISIBILITY.

WIZ001-002-006>008-014>016-023>028-270200-
NORTHWEST WISCONSIN

CITY           SKY/WX    TMP DP  RH WIND       PRES   REMARKS
SUPERIOR ARPT  CLOUDY    63  56  78 S5        30.10S
ASHLAND        MOCLDY    62  54  74 S3        30.13F
HAYWARD        PTCLDY    62  57  83 CALM      30.14F
SIREN          PTCLDY    62  56  81 CALM      30.13F
CUMBERLAND     PTCLDY    61  55  82 S3        30.14F
RICE LAKE      PTCLDY    63  57  81 S3        30.16S
CHETEK         NOT AVBL
LADYSMITH      PTCLDY    62  57  84 CALM      30.17S
EAU CLAIRE     CLOUDY    65  58  78 N3        30.13S
MENOMONIE      CLOUDY    66  58  73 CALM      30.14S
NEW RICHMOND   CLOUDY    64  55  72 S5        30.14S
OSCEOLA        CLOUDY    65  59  82 S3        30.16S
$$

WIZ003>005-009-010-017-018-270200-
NORTH CENTRAL WISCONSIN

CITY           SKY/WX    TMP DP  RH WIND       PRES   REMARKS
MANITOWISH WTR NOT AVBL
ARBOR VITAE    CLOUDY    60  56  85 CALM      30.16S
WOODRUFF       CLOUDY    60  56  85 CALM      30.16S
RHINELANDER    CLOUDY    59  57  93 CALM      30.16F
EAGLE RIVER    CLOUDY    58  54  86 CALM      30.16S
LAND O LAKES   PTCLDY    55  53  91 CALM      30.17F
PHILLIPS       PTCLDY    58  56  92 CALM      30.15S
TOMAHAWK       CLOUDY    58  55  88 CALM      30.16F
MEDFORD        PTCLDY    58  58 100 CALM      30.15F
MERRILL        CLOUDY    62  59  88 CALM      30.16F
$$

WIZ029-030-035-036-043>047-270200-
CENTRAL WISCONSIN

CITY           SKY/WX    TMP DP  RH WIND       PRES   REMARKS
WAUSAU         MOCLDY    65  55  70 SW3       30.14S
MOSINEE        CLEAR     63  57  82 CALM      30.16F
MARSHFIELD     PTCLDY    65  57  75 CALM      30.15S
STEVENS POINT  MOCLDY    62  56  82 CALM      30.16S
WAUPACA        CLOUDY    67  59  76 CALM      30.15S
WAUTOMA        PTCLDY    64  62  93 CALM      30.15S
WISC RAPIDS    CLOUDY    64  60  87 CALM      30.16F
CAMP DOUGLAS   CLOUDY    64  63  94 N3        30.14R
$$

WIZ011>013-019>022-031-037>040-048>050-270200-
NORTHEAST WISCONSIN

CITY           SKY/WX    TMP DP  RH WIND       PRES   REMARKS
ANTIGO         CLOUDY    61  56  84 CALM      30.17S
SHAWANO        CLOUDY    68  56  66 SW3       30.14F
OCONTO         NOT AVBL
STURGEON BAY   CLOUDY    65  59  81 S5        30.15R
GREEN BAY      CLOUDY    64  63  96 CALM      30.13F
MANITOWOC      CLOUDY    64  58  80 CALM      30.14S
APPLETON       MOCLDY    66  54  63 W3        30.14S
CLINTONVILLE   PTCLDY    64  55  72 CALM      30.14F
OSHKOSH        CLOUDY    67  58  72 CALM      30.15R
$$

WIZ032>034-041-042-053>061-270200-
SOUTHWEST WISCONSIN

CITY           SKY/WX    TMP DP  RH WIND       PRES   REMARKS
LA CROSSE      CLOUDY    70  61  73 CALM      30.12F
SPARTA         PTCLDY    65  61  89 CALM      30.15S
VIROQUA        CLOUDY    65  61  88 E3        30.15S
BOSCOBEL       LGT RAIN  66  63  90 CALM      30.15R
PRAIRIE DU CHI LGT RAIN  66  61  86 CALM      30.13F
PLATTEVILLE    CLOUDY    66  65  94 NE5       30.14S
$$

WIZ056-057-062-063-064-067-068-270200-
SOUTH CENTRAL WISCONSIN

CITY           SKY/WX    TMP DP  RH WIND       PRES   REMARKS
REEDSBURG      NOT AVBL
BARABOO/DELLS  CLOUDY    65  60  84 CALM      30.15R
LONE ROCK      LGT RAIN  67  63  87 CALM      30.15R
MINERAL POINT  CLOUDY    68  63  83 CALM      30.15R
MADISON        CLOUDY    67  60  78 N3        30.14S
MIDDLETON      CLOUDY    67  62  83 N3        30.15S
WATERTOWN      PTCLDY    69  60  74 N5        30.14S
MONROE         MOCLDY    68  61  77 N5        30.14R
JANESVILLE     MOCLDY    73  59  60 NE6       30.13R
$$

WIZ051-052-058>065-066-070>072-270200-
SOUTHEAST WISCONSIN

CITY           SKY/WX    TMP DP  RH WIND       PRES   REMARKS
MILWAUKEE      CLOUDY    70  58  65 E6        30.15R
WAUKESHA       CLEAR     66  55  68 SE6       30.16R
MILWAUKEE/TIMM CLEAR     70  54  56 SE5       30.15R
RACINE         CLOUDY    70  58  65 E6        30.16R
BURLINGTON     CLOUDY    67  59  75 E7        30.15R
KENOSHA        CLOUDY    68  60  75 E6        30.15R
FOND DU LAC    PTCLDY    65  58  78 CALM      30.15R
SHEBOYGAN      PTCLDY    66  56  70 S3        30.15R
WEST BEND      PTCLDY    64  59  82 CALM      30.16R
JUNEAU         PTCLDY    65  60  85 N3        30.16S
$$

LSZ147-162-270200-
LAKE SUPERIOR

STATION/POSITION TIME  TEMP    WIND        PRES    WAVE
                       AIR SEA DIR/SP/G            HT/PER
                 (UTC) (F)     (DEG/KT/KT) (MB)    (FT/S)
W MID LAKE BUOY  0050   65 67  180/  6/  6 1019.9F   1
DEVILS ISLAND    0100   64     150/  8/ 10 1020.0F
PORT WING        0000   71     160/  5/  8 1019.6F
SAXON HARBOR     0000   67     200/  2/  3 1020.0F
$$

LMZ867-665-643>646-270200-
LAKE MICHIGAN

STATION/POSITION TIME  TEMP    WIND        PRES    WAVE
                       AIR SEA DIR/SP/G            HT/PER
                 (UTC) (F)     (DEG/KT/KT) (MB)    (FT/S)
CHAMBERS ISLAND  0000   69     180/  2/  4 1020.0S
S GREEN BAY BUOY 0030   71 72  210/ 12/ 14 1019.7F
N MID LAKE BUOY  0050   69 71  230/  6/  8 1020.0R   1
NORTHPORT PIER   0000   69     180/  2/  4 1020.0S
SISTER BAY       0037   67     140/  5/  6   N/A
ALGOMA LAKESHORE 0045          210/  6/  8   N/A
KEWAUNEE LAKESHO 0000   61     170/  8/ 10 1020.2F
SHEBOYGAN LAKESH 0100   66     210/  3/  3 1020.3R
PORT WASHINGTON  0040   65      30/  1/  2 1021.0F
ATWATER BUOY     0000   66     190/  2/  2   N/A
MILWAUKEE LAKESH 0010   66      60/  2/  3   N/A
S MID LAKE BUOY  0050   71 75   50/  8/ 10 1020.1R   1
KENOSHA   LAKESH 0100   71      90/  7/  9 1020.3R
$$

TC  - TEMPERATURE IN CELSIUS
VSB - VISIBILITY IN STATUTE MILES
WCI - WIND CHILL INDEX
HX  - HEAT INDEX





USA.gov is the U.S. government's official web portal to all federal, state and local government web resources and services.